User: anonymous   Login
Location: Unspecified
(0.0000°N, 0.0000°E)
Time: 08:56:40
(UTC+00:00)
Language:

STARLINK-34029 - Orbit

View from above orbital plane
View from above orbital plane
View from above satellite
View from above satellite

Ground track
Ground track

The orbit is defined by the following mean orbital elements,

1 63805U          26145.21208216 +.00000000 +00000-0 +82220-3 0 00002
2 63805  43.0021 100.7396 0001658 268.0398  92.0264 15.27600590    04
Epoch (UTC): 25 May 2026 05:05:23
Eccentricity: 0.0001658
inclination: 43.0021°
perigee height: 482 km
apogee height: 484 km
right ascension of ascending node: 100.7396°
argument of perigee: 268.0398°
revolutions per day: 15.27600590
mean anomaly at epoch: 92.0264°

The dashed part of the orbit path shows where the satellite is in the earth's shadow,  

DLR